Weather History for Hatteras, NC

Change the Weather History Date:

Wednesday, February 13, 2013

  Actual Average Record
Temperature  
Mean Temperature 53 °F 46 °F  
Max Temperature 58 °F 52 °F 71 °F (1984)
Min Temperature 48 °F 39 °F 16 °F (1899)
Degree Days  
Heating Degree Days 12 19  
Month to date heating degree days 195 19  
Since 1 July heating degree days 1456 1432  
Cooling Degree Days 0 0  
Month to date cooling degree days 0 0  
Year to date cooling degree days 0 0  
Growing Degree Days 2 (Base 50)    
Moisture  
Dew Point 50 °F    
Average Humidity 92    
Maximum Humidity 100    
Minimum Humidity 83    
Precipitation  
Precipitation 0.83 in 0.15 in 2.02 in (2008)
Month to date precipitation 4.09 0.15  
Year to date precipitation 6.26 5.39  
Snow  
Snow 0.00 in - - ()
Month to date snowfall 0.0  
Since 1 July snowfall 0.0  
Snow Depth 0.00 in    
Sea Level Pressure  
Sea Level Pressure 29.75 in    
Wind  
Wind Speed 9 mph (NNE)    
Max Wind Speed 21 mph    
Max Gust Speed 31 mph    
Visibility 7 miles    
Events Rain    
T = Trace of Precipitation, MM = Missing Value Source: NWS Daily Summary

Daily Weather History Graph

Daily Weather History Graph

Search for Another Location

Airport:

Trip Planner

Search our weather history database for the weather conditions in past years. The results will help you decide how hot, cold, wet, or windy it might be!

Date:

Astronomy

Feb. 13, 2013 Rise Set
Actual Time 6:50 AM EST 5:43 PM EST
Civil Twilight 6:24 AM EST 6:09 PM EST
Nautical Twilight 5:54 AM EST 6:39 PM EST
Astronomical Twilight 5:25 AM EST 7:08 PM EST
Moon 8:28 AM EST (2/13) 9:32 PM EST (2/13)
Length of Visible Light 11h 44m
Length of Day
10h 52m
Waxing Crescent, 13% of the Moon is Illuminated
Feb 13
Waxing Crescent
Feb 17
First Quarter
Feb 25
Full
Mar 4
Last Quarter
Mar 11
New

Hourly Weather History & Observations

Time (EST) Temp. Dew Point Humidity Pressure Visibility Wind Dir Wind Speed Gust Speed Precip Events Conditions
12:51 AM 52.0 °F 46.9 °F 83% 29.98 in 8.0 mi SW 5.8 mph - 0.03 in Rain Light Rain
1:51 AM 52.0 °F 46.9 °F 83% 29.98 in 5.0 mi WSW 8.1 mph - 0.08 in Rain Rain
2:51 AM 48.9 °F 46.0 °F 90% 29.94 in 6.0 mi Calm Calm - 0.11 in Rain Light Rain
3:51 AM 50.0 °F 46.9 °F 89% 29.87 in 10.0 mi SSE 9.2 mph - 0.07 in   Overcast
4:51 AM 50.0 °F 46.9 °F 89% 29.83 in 5.0 mi East 6.9 mph - 0.11 in Rain Rain
5:34 AM 50.0 °F 48.2 °F 94% 29.85 in 10.0 mi Calm Calm - 0.05 in Rain Light Rain
5:51 AM 50.0 °F 48.0 °F 93% 29.85 in 4.0 mi Calm Calm - 0.07 in Rain Rain
6:12 AM 50.0 °F 48.2 °F 94% 29.82 in 6.0 mi East 4.6 mph - 0.03 in Rain Light Rain
6:19 AM 50.0 °F 48.2 °F 94% 29.82 in 7.0 mi East 5.8 mph - 0.04 in Rain Light Rain
6:34 AM 51.8 °F 50.0 °F 94% 29.83 in 10.0 mi NE 4.6 mph - 0.04 in Rain Light Rain
6:41 AM 51.8 °F 50.0 °F 94% 29.82 in 6.0 mi ENE 4.6 mph - 0.04 in Rain Light Rain
6:51 AM 51.1 °F 50.0 °F 96% 29.83 in 7.0 mi East 3.5 mph - 0.05 in Rain Light Rain
7:05 AM 51.8 °F 50.0 °F 94% 29.81 in 4.0 mi NE 4.6 mph - 0.02 in Rain Light Rain
7:18 AM 51.8 °F 50.0 °F 94% 29.82 in 3.0 mi NNE 4.6 mph - 0.03 in Rain Light Rain
7:25 AM 51.8 °F 50.0 °F 94% 29.81 in 3.0 mi NNE 5.8 mph - 0.04 in Rain Light Rain
7:48 AM 55.4 °F 53.6 °F 94% 29.80 in 5.0 mi ESE 10.4 mph - 0.05 in Rain Light Rain
7:51 AM 55.0 °F 54.0 °F 96% 29.81 in 5.0 mi ESE 9.2 mph - 0.05 in Rain Light Rain
8:19 AM 55.4 °F 53.6 °F 94% 29.80 in 2.5 mi ENE 3.5 mph - 0.01 in Rain Light Rain
8:47 AM 51.1 °F 50.0 °F 96% 29.80 in 1.5 mi North 6.9 mph - 0.07 in Rain Rain
8:57 AM 50.0 °F 48.2 °F 94% 29.80 in 1.0 mi NNE 4.6 mph - 0.05 in Rain Heavy Rain
9:12 AM 50.0 °F 48.2 °F 94% 29.78 in 2.0 mi NNE 8.1 mph 16.1 mph 0.09 in Rain Light Rain
9:22 AM 50.0 °F 48.2 °F 94% 29.77 in 4.0 mi NE 9.2 mph - 0.10 in Rain Light Rain
9:51 AM 50.0 °F 48.9 °F 96% 29.78 in 4.0 mi NNE 10.4 mph 16.1 mph 0.11 in Rain Light Rain
10:21 AM 50.0 °F 50.0 °F 100% 29.76 in 1.8 mi NE 12.7 mph 20.7 mph 0.04 in Rain Rain
10:30 AM 51.8 °F 50.0 °F 94% 29.75 in 3.0 mi NE 12.7 mph 20.7 mph 0.05 in Rain Light Rain
10:51 AM 50.0 °F 50.0 °F 100% 29.74 in 4.0 mi NE 12.7 mph 20.7 mph 0.06 in Rain Light Rain
11:51 AM 50.0 °F 48.9 °F 96% 29.72 in 6.0 mi NE 10.4 mph 19.6 mph 0.00 in   Overcast
12:27 PM 51.8 °F 51.8 °F 100% 29.67 in 10.0 mi ENE 8.1 mph - N/A   Mostly Cloudy
12:51 PM 57.0 °F 55.0 °F 93% 29.67 in 10.0 mi NE 8.1 mph - N/A   Mostly Cloudy
1:48 PM 51.8 °F 51.8 °F 100% 29.66 in 10.0 mi North 6.9 mph - N/A   Overcast
1:51 PM 52.0 °F 50.0 °F 93% 29.68 in 10.0 mi NW 8.1 mph - N/A   Overcast
1:59 PM 51.8 °F 50.0 °F 94% 29.66 in 10.0 mi Variable 4.6 mph 16.1 mph N/A   Overcast
2:14 PM 53.6 °F 51.8 °F 94% 29.65 in 10.0 mi North 4.6 mph - N/A   Overcast
2:51 PM 52.0 °F 50.0 °F 93% 29.64 in 10.0 mi NNE 4.6 mph - N/A   Overcast
3:06 PM 51.8 °F 48.2 °F 88% 29.65 in 10.0 mi NNE 5.8 mph - N/A   Overcast
3:51 PM 51.1 °F 50.0 °F 96% 29.64 in 10.0 mi Calm Calm - N/A   Overcast
4:14 PM 51.8 °F 50.0 °F 94% 29.64 in 10.0 mi Calm Calm - N/A   Overcast
4:51 PM 52.0 °F 50.0 °F 93% 29.63 in 10.0 mi South 4.6 mph - N/A   Overcast
5:26 PM 57.2 °F 55.4 °F 94% 29.63 in 10.0 mi SW 12.7 mph - N/A   Overcast
5:51 PM 57.0 °F 55.9 °F 96% 29.62 in 10.0 mi SW 12.7 mph 24.2 mph N/A   Overcast
6:51 PM 57.0 °F 55.9 °F 96% 29.66 in 7.0 mi WSW 13.8 mph 24.2 mph N/A   Overcast
7:33 PM 57.2 °F 55.4 °F 94% 29.66 in 7.0 mi WSW 13.8 mph 21.9 mph N/A   Overcast
7:51 PM 57.0 °F 55.9 °F 96% 29.65 in 7.0 mi WSW 16.1 mph 25.3 mph N/A   Mostly Cloudy
8:41 PM 55.4 °F 53.6 °F 94% 29.67 in 10.0 mi West 16.1 mph 26.5 mph 0.01 in Rain Light Rain
8:51 PM 55.9 °F 53.1 °F 90% 29.67 in 10.0 mi West 15.0 mph 26.5 mph 0.01 in Rain Light Rain
9:33 PM 53.6 °F 51.8 °F 94% 29.71 in 9.0 mi West 15.0 mph 23.0 mph 0.01 in Rain Light Rain
9:51 PM 53.1 °F 51.1 °F 93% 29.69 in 10.0 mi West 11.5 mph 19.6 mph 0.01 in Rain Light Rain
10:51 PM 52.0 °F 48.0 °F 86% 29.73 in 10.0 mi West 15.0 mph 26.5 mph 0.00 in   Scattered Clouds
11:51 PM 52.0 °F 46.9 °F 83% 29.77 in 10.0 mi West 12.7 mph 23.0 mph N/A   Mostly Cloudy